[[{"header":{"parameterUnit":"m.s-1","parameterCategory":1,"la1":30.2991,"la2":30.254,"lo1":-89.0895,"lo2":-89.0444,"dy":0.0017,"dx":0.0017,"nx":28,"ny":28,"refTime":"2023-07-30T03:00:00:Z","depth":0,"parameterNumber":2,"parameterNumberName":"U-component_of_WINDS"},"data":[0,0,0,0,0,0,0,0,0,0,0,0,0,0,0,0,0,0,0,0,0,0,0,0,0,0,0,0,0,0,0,0,0,0,0,0,0,0,0,0,0,0,0,0,0,0,0,0,0,0,0,0,0,0,0,0,0,0,-0.1916,-0.1915,0,-0.1882,-0.1881,-0.1881,-0.1868,-0.1868,-0.1868,-0.1868,-0.1833,-0.1832,-0.1831,0,0,0,0,0,0,0,0,0,0,0,0,0,-0.1968,-0.1967,-0.1916,-0.1915,-0.1915,-0.1882,-0.1881,-0.1881,-0.1868,-0.1868,-0.1868,-0.1868,-0.1833,-0.1832,-0.1831,0,0,0,0,0,0,0,0,0,0,0,0,0,-0.1941,-0.1967,-0.1916,-0.1904,-0.1903,-0.1882,-0.1881,-0.1881,-0.1868,-0.1868,-0.1868,-0.1868,-0.1833,-0.1832,-0.183,-0.1818,0,0,-0.1826,-0.1825,0,0,0,0,0,0,0,0,-0.1942,-0.1939,-0.1907,-0.1905,-0.1904,-0.1879,-0.1887,-0.186,-0.1868,-0.1881,-0.1868,-0.1869,-0.1848,-0.1845,-0.1839,-0.1816,-0.1814,-0.1825,-0.1825,-0.1824,-0.1823,0,0,0,0,0,0,0,-0.1944,-0.194,-0.1902,-0.1906,-0.1904,-0.1901,-0.1897,-0.1881,-0.1864,-0.188,-0.1879,-0.1875,-0.1847,-0.184,-0.1838,-0.1814,-0.1826,-0.1824,-0.1823,-0.1823,-0.1778,-0.1778,0,0,0,0,0,0,-0.1948,-0.1942,-0.1903,-0.1901,-0.1924,-0.19,-0.1895,-0.1887,-0.1864,-0.1861,-0.1875,-0.1875,-0.1843,-0.1839,-0.1836,-0.1819,-0.1824,-0.1822,-0.1821,-0.1778,-0.1778,-0.1778,0,0,0,0,0,0,-0.1949,-0.1945,-0.1905,-0.1921,-0.1916,-0.1899,-0.1889,-0.1886,-0.1879,-0.1861,-0.1857,-0.1871,-0.1843,-0.1839,-0.1822,-0.1818,-0.1822,-0.182,-0.1779,-0.1778,-0.1778,-0.1785,0,0,0,0,0,0,-0.1951,-0.1945,-0.1941,-0.1921,-0.1915,-0.1892,-0.1889,-0.1885,-0.1876,-0.1876,-0.1856,-0.1853,-0.1842,-0.1825,-0.1821,-0.1816,-0.1819,-0.1779,-0.1779,-0.1778,-0.1785,-0.1785,-0.1785,0,0,0,0,0,-0.1953,-0.1944,-0.1941,-0.1936,-0.1909,-0.1891,-0.1888,-0.1876,-0.1876,-0.1871,-0.1859,-0.1853,-0.1819,-0.1823,-0.1818,-0.1813,-0.1779,-0.1779,-0.1778,-0.1786,-0.1785,-0.1785,0,0,0,0,0,0,-0.1963,-0.1941,-0.1937,-0.1922,-0.1909,-0.1889,-0.1882,-0.1877,-0.1863,-0.1863,-0.1849,-0.1844,-0.1829,-0.1819,-0.1824,-0.1799,-0.1799,-0.1797,-0.1806,-0.1806,-0.1805,-0.1808,-0.1818,0,0,0,0,0,-0.1964,-0.1952,-0.1933,-0.1922,-0.1915,-0.19,-0.1892,-0.1884,-0.187,-0.1864,-0.1851,-0.1837,-0.1823,-0.1814,-0.18,-0.1784,-0.1779,-0.1778,-0.1778,-0.1778,-0.1777,-0.1767,-0.1766,-0.1776,-0.1776,-0.1776,0,0,-0.1965,-0.1951,-0.1945,-0.1923,-0.1912,-0.1899,-0.1895,-0.1882,-0.1872,-0.1862,-0.1846,-0.1835,-0.1819,-0.1803,-0.1795,-0.1794,-0.1773,-0.1777,-0.1777,-0.1776,-0.1766,-0.1765,-0.1765,-0.1776,-0.1776,-0.1776,0,0,-0.196,-0.1949,-0.1938,-0.1927,-0.191,-0.1899,-0.1897,-0.1878,-0.1871,-0.1854,-0.1846,-0.1834,-0.181,-0.1799,-0.1789,-0.178,-0.1774,-0.1776,-0.1775,-0.1765,-0.1765,-0.1764,-0.176,-0.1758,-0.1774,-0.1774,-0.1774,0,-0.1964,-0.1945,-0.1933,-0.192,-0.191,-0.19,-0.1888,-0.1878,-0.1857,-0.1851,-0.185,-0.182,-0.1808,-0.1789,-0.1786,-0.1779,-0.1775,-0.1778,-0.1766,-0.1765,-0.1764,-0.176,-0.1758,-0.1775,-0.1775,-0.1775,-0.1775,0,-0.1949,-0.1936,-0.1929,-0.1909,-0.1899,-0.1886,-0.1872,-0.1863,-0.1856,-0.1846,-0.1829,-0.1814,-0.1797,-0.1792,-0.1785,-0.1771,-0.1771,-0.1769,-0.1768,-0.1763,-0.1759,-0.1758,-0.1775,-0.1775,-0.1775,-0.1775,0,0,-0.195,-0.1924,-0.1921,-0.1912,-0.1892,-0.1881,-0.1868,-0.1851,-0.1844,-0.183,-0.1818,-0.1798,-0.1795,-0.1785,-0.1776,-0.1768,-0.1761,-0.1766,-0.1766,-0.1765,-0.1744,-0.1745,-0.1744,-0.1757,-0.1756,-0.1756,-0.1745,0,-0.1943,-0.1919,-0.1908,-0.1889,-0.1876,-0.1866,-0.1855,-0.1841,-0.1831,-0.1818,-0.1807,-0.1793,-0.179,-0.1784,-0.1776,-0.1763,-0.1756,-0.1764,-0.1745,-0.1745,-0.1749,-0.1742,-0.1744,-0.1734,-0.1743,-0.1743,-0.1743,0,-0.193,-0.1916,-0.1896,-0.1877,-0.1871,-0.1861,-0.1845,-0.1833,-0.1817,-0.181,-0.1798,-0.179,-0.1775,-0.1776,-0.1755,-0.1761,-0.1753,-0.1745,-0.1745,-0.1742,-0.1743,-0.1738,-0.173,-0.1729,-0.174,-0.174,-0.1741,0,-0.1933,-0.1909,-0.1893,-0.1885,-0.1863,-0.1856,-0.1846,-0.1831,-0.1821,-0.1806,-0.18,-0.1783,-0.1774,-0.1762,-0.1749,-0.1751,-0.1729,-0.1729,-0.1723,-0.1723,-0.1718,-0.1719,-0.1708,-0.1714,-0.1714,-0.1714,-0.1714,0,-0.1925,-0.1913,-0.1894,-0.1884,-0.187,-0.1857,-0.1843,-0.1833,-0.1819,-0.1807,-0.1797,-0.1786,-0.177,-0.1757,-0.1747,-0.1731,-0.1727,-0.1721,-0.1718,-0.1721,-0.1722,-0.1715,-0.1715,-0.1714,-0.1714,-0.1714,-0.1714,0,-0.1925,-0.1912,-0.1894,-0.1874,-0.1869,-0.1859,-0.1842,-0.1832,-0.1822,-0.1806,-0.1802,-0.1785,-0.1769,-0.1755,-0.1734,-0.1727,-0.171,-0.1708,-0.1716,-0.1714,-0.1708,-0.1709,-0.1693,-0.169,-0.1698,-0.1698,-0.1698,0,-0.1921,-0.1911,-0.189,-0.1881,-0.1872,-0.1858,-0.1848,-0.1834,-0.1824,-0.1805,-0.1797,-0.178,-0.1766,-0.174,-0.1726,-0.1709,-0.1706,-0.1701,-0.1703,-0.1706,-0.1705,-0.1705,-0.1704,-0.1701,-0.1701,-0.1701,-0.1701,0,-0.1914,-0.1908,-0.1894,-0.1878,-0.1866,-0.1852,-0.1838,-0.1831,-0.1815,-0.1804,-0.1787,-0.1776,-0.1754,-0.1737,-0.1719,-0.1709,-0.1702,-0.1701,-0.1698,-0.1701,-0.1706,-0.1702,-0.1715,-0.1701,-0.1701,-0.1701,-0.1701,-0.1701,-0.1912,-0.1902,-0.1886,-0.187,-0.1858,-0.1845,-0.1835,-0.1823,-0.1808,-0.1789,-0.1782,-0.1765,-0.1748,-0.1723,-0.1713,-0.1699,-0.1698,-0.1694,-0.1693,-0.1693,-0.1693,-0.1708,-0.1695,-0.1695,-0.1695,-0.1695,-0.1695,0,-0.1904,-0.1893,-0.1879,-0.1859,-0.1847,-0.1842,-0.1826,-0.1816,-0.18,-0.1786,-0.1772,-0.1752,-0.1735,-0.1719,-0.1702,-0.1694,-0.169,-0.1689,-0.1689,-0.1687,-0.1695,-0.1698,-0.1693,-0.1693,-0.1693,-0.1693,-0.1693,-0.1693,-0.1899,-0.1883,-0.1874,-0.1852,-0.184,-0.1823,-0.1814,-0.1802,-0.179,-0.1769,-0.1755,-0.1744,-0.1729,-0.171,-0.1694,-0.169,-0.1684,-0.1684,-0.1679,-0.1686,-0.1687,-0.1687,-0.169,-0.1683,-0.1683,-0.1672,-0.1672,-0.1672]},{"header":{"parameterUnit":"m.s-1","parameterCategory":1,"la1":30.2991,"la2":30.254,"lo1":-89.0895,"lo2":-89.0444,"dy":0.0017,"dx":0.0017,"nx":28,"ny":28,"refTime":"2023-07-30T03:00:00:Z","depth":0,"parameterNumber":3,"parameterNumberName":"V-component_of_WINDS"},"data":[0,0,0,0,0,0,0,0,0,0,0,0,0,0,0,0,0,0,0,0,0,0,0,0,0,0,0,0,0,0,0,0,0,0,0,0,0,0,0,0,0,0,0,0,0,0,0,0,0,0,0,0,0,0,0,0,0,0,0.2408,0.2409,0,0.2503,0.2504,0.2505,0.2502,0.25,0.2499,0.2498,0.2594,0.2598,0.2601,0,0,0,0,0,0,0,0,0,0,0,0,0,0.2218,0.2222,0.2408,0.2409,0.2411,0.2503,0.2504,0.2506,0.2502,0.25,0.2499,0.2497,0.2593,0.2597,0.2602,0,0,0,0,0,0,0,0,0,0,0,0,0,0.2306,0.2223,0.2408,0.242,0.2422,0.2503,0.2505,0.2506,0.2502,0.25,0.2498,0.2496,0.2591,0.2597,0.2602,0.2678,0,0,0.262,0.2622,0,0,0,0,0,0,0,0,0.2301,0.2313,0.2417,0.2419,0.2422,0.2489,0.2473,0.2564,0.2503,0.2472,0.2498,0.2495,0.256,0.2568,0.2591,0.2682,0.2686,0.262,0.2624,0.2626,0.2628,0,0,0,0,0,0,0,0.2295,0.2309,0.2446,0.2418,0.2421,0.2419,0.2429,0.249,0.2526,0.2474,0.2474,0.2485,0.2561,0.2585,0.2593,0.2688,0.262,0.2625,0.2629,0.2631,0.2838,0.284,0,0,0,0,0,0,0.2287,0.2304,0.2443,0.2449,0.2355,0.2424,0.2435,0.2469,0.2525,0.2532,0.2487,0.2485,0.2576,0.2586,0.2596,0.2683,0.2626,0.2631,0.2635,0.2836,0.2839,0.2841,0,0,0,0,0,0,0.2283,0.2299,0.2439,0.2376,0.2394,0.2429,0.2467,0.2472,0.2496,0.2535,0.2541,0.2505,0.2575,0.2588,0.2656,0.2687,0.2634,0.2639,0.2834,0.2837,0.284,0.2861,0,0,0,0,0,0,0.2277,0.2298,0.2328,0.2377,0.2397,0.2499,0.2469,0.2475,0.2506,0.2504,0.2554,0.256,0.2575,0.2647,0.2662,0.2694,0.2644,0.2831,0.2835,0.2839,0.2858,0.2865,0.2871,0,0,0,0,0,0.227,0.2332,0.233,0.2347,0.2436,0.2501,0.2512,0.2528,0.2509,0.2538,0.2562,0.2558,0.2681,0.2654,0.267,0.2705,0.2829,0.2834,0.2839,0.2855,0.2863,0.287,0,0,0,0,0,0,0.2287,0.2339,0.2337,0.2416,0.2454,0.25,0.2538,0.2537,0.2581,0.2578,0.2595,0.2606,0.2673,0.2696,0.2665,0.2777,0.2753,0.2761,0.276,0.2768,0.2774,0.2766,0.2648,0,0,0,0,0,0.23,0.2349,0.2391,0.2457,0.2475,0.2503,0.2532,0.2541,0.258,0.2596,0.2626,0.2663,0.271,0.274,0.2786,0.2861,0.2869,0.2892,0.2899,0.2904,0.291,0.2946,0.2955,0.2857,0.2856,0.2856,0,0,0.2327,0.2361,0.2392,0.2461,0.2491,0.2539,0.2517,0.257,0.2605,0.2604,0.2669,0.2691,0.2734,0.2804,0.2837,0.2826,0.2938,0.291,0.2913,0.2917,0.2951,0.2961,0.2969,0.286,0.2859,0.2859,0,0,0.2401,0.2433,0.2489,0.2518,0.2563,0.2581,0.2594,0.2639,0.2653,0.2718,0.2716,0.2757,0.2839,0.2868,0.2893,0.2971,0.2967,0.2985,0.3018,0.3052,0.306,0.3067,0.3091,0.3099,0.2992,0.2992,0.2992,0,0.2429,0.2502,0.2517,0.2569,0.2597,0.2597,0.2651,0.2679,0.2737,0.2756,0.2742,0.284,0.287,0.2944,0.2962,0.2984,0.2996,0.2979,0.3058,0.3065,0.3072,0.3094,0.3103,0.2993,0.2993,0.2993,0.2993,0,0.2531,0.2582,0.2621,0.2674,0.2707,0.2761,0.2781,0.2812,0.2816,0.2834,0.2897,0.2932,0.2981,0.3,0.3006,0.3073,0.3064,0.3055,0.303,0.3082,0.3103,0.3113,0.2996,0.2995,0.2995,0.2994,0,0,0.2621,0.2678,0.2692,0.2713,0.2761,0.2799,0.285,0.2898,0.2922,0.2961,0.3001,0.3067,0.3056,0.3085,0.3093,0.3124,0.3177,0.311,0.3111,0.3118,0.3248,0.3253,0.3263,0.3176,0.3177,0.3179,0.3243,0,0.2696,0.2786,0.2798,0.2877,0.2921,0.2919,0.2962,0.2995,0.3011,0.3049,0.3068,0.3112,0.3098,0.3114,0.3144,0.3165,0.3203,0.316,0.321,0.3212,0.3197,0.3275,0.3282,0.3342,0.3252,0.3254,0.3255,0,0.2796,0.2835,0.2918,0.2953,0.2972,0.3011,0.3053,0.3091,0.3125,0.3135,0.3164,0.3167,0.3216,0.319,0.3255,0.3226,0.3246,0.3259,0.3261,0.3265,0.3235,0.3278,0.3362,0.3369,0.3269,0.3268,0.3267,0,0.2847,0.292,0.2978,0.2997,0.3042,0.3068,0.3088,0.312,0.3146,0.3182,0.3198,0.324,0.3263,0.3294,0.3306,0.3287,0.3369,0.3346,0.3376,0.3375,0.3393,0.3391,0.3478,0.3411,0.341,0.341,0.341,0,0.2928,0.2978,0.3,0.3035,0.3089,0.3102,0.3154,0.3173,0.3201,0.3237,0.3239,0.3273,0.3289,0.3325,0.3336,0.3385,0.3396,0.3403,0.3405,0.3402,0.34,0.3414,0.3409,0.3413,0.3412,0.3412,0.3411,0,0.2994,0.3012,0.3073,0.3109,0.3119,0.3156,0.3186,0.3218,0.3233,0.3279,0.329,0.3314,0.3355,0.3371,0.3423,0.3429,0.3485,0.3485,0.3473,0.3473,0.3501,0.3497,0.3598,0.361,0.3538,0.3538,0.3539,0,0.3044,0.3081,0.312,0.3144,0.3163,0.3203,0.3228,0.3241,0.3267,0.3306,0.3333,0.3374,0.3407,0.3473,0.3493,0.3531,0.353,0.3562,0.3536,0.3529,0.3526,0.3522,0.3524,0.3567,0.3568,0.3568,0.3569,0,0.3128,0.3133,0.317,0.3209,0.3238,0.327,0.33,0.3319,0.3336,0.3364,0.3406,0.3431,0.3482,0.3521,0.3559,0.3577,0.3574,0.3577,0.3585,0.3581,0.3571,0.3573,0.3484,0.3574,0.3574,0.3573,0.3573,0.3573,0.3185,0.3216,0.3246,0.3285,0.3309,0.3336,0.3366,0.3383,0.3418,0.3459,0.3464,0.3508,0.3536,0.3587,0.3606,0.3639,0.363,0.3643,0.3646,0.3648,0.3648,0.3567,0.3646,0.3646,0.3646,0.3646,0.3646,0,0.3266,0.3284,0.332,0.336,0.339,0.3385,0.3416,0.3441,0.3479,0.3506,0.3538,0.3583,0.362,0.3642,0.3678,0.3699,0.3699,0.3708,0.3705,0.3709,0.3656,0.3644,0.3708,0.3708,0.3707,0.3707,0.3707,0.3707,0.3311,0.3361,0.337,0.343,0.3448,0.349,0.3508,0.3531,0.3552,0.3602,0.3632,0.3646,0.367,0.3707,0.3739,0.3744,0.3756,0.3765,0.3769,0.372,0.3713,0.3707,0.3695,0.3769,0.3769,0.3819,0.3819,0.3819]}]]